Theta_e
306 307 313 321 324 323 318 320 334 340 341 340 338 342 344 341 337 335 334 333 335 336 336 333 331 332 331 327 322 320 317 321
305 306 306 308 316 323 326 329 332 333 334 336 338 339 338 339 339 336 334 334 333 333 330 330 329 330 330 326 324 321 318 320
306 306 306 305 306 308 309 314 320 328 333 336 337 338 338 337 337 335 337 335 334 332 330 329 329 330 329 327 326 323 316 316
304 304 304 306 305 305 306 308 309 308 309 316 329 330 330 332 331 333 332 332 331 332 330 330 329 330 329 327 325 322 315 316
303 302 303 302 303 305 306 306 307 307 308 309 309 311 315 313 318 321 324 327 327 328 329 326 325 326 325 326 325 322 316 316
302 301 301 301 301 302 302 303 304 306 307 307 309 308 308 310 311 310 312 311 311 324 325 326 323 326 324 324 324 321 317 316
302 302 302 303 303 304 304 303 303 303 304 307 308 307 307 307 308 310 312 310 310 310 314 323 323 322 321 323 323 321 318 318
302 302 301 301 301 303 304 305 306 304 302 303 307 307 307 307 307 307 308 309 312 310 309 316 318 322 320 321 320 320 319 318
301 300 300 299 299 299 300 301 302 302 301 302 304 307 306 305 305 305 306 306 308 311 311 312 314 314 316 319 320 319 318 319
300 300 299 299 300 301 302 302 301 302 306 304 304 307 306 307 307 307 308 308 310 308 310 312 312 312 314 316 316 316 316 317
299 299 300 300 301 301 302 302 302 306 305 305 307 306 305 305 305 306 306 307 309 312 311 310 310 314 313 313 314 314 316 315
300 300 300 300 301 301 301 302 302 306 306 306 305 302 301 301 302 304 305 306 306 310 312 311 309 311 313 311 311 312 311 314
299 299 300 300 300 301 301 301 302 305 306 306 303 301 301 301 301 301 302 302 304 306 308 311 311 311 312 311 312 312 313 312
299 299 299 299 300 299 300 301 303 305 306 306 303 302 301 301 301 301 302 302 302 303 305 306 309 312 313 313 312 312 312 313
299 299 299 299 299 299 300 301 302 305 305 305 303 301 301 301 301 301 302 302 303 303 303 304 306 308 310 311 311 314 312 312
298 298 299 299 299 298 300 301 303 304 305 304 303 301 301 301 301 301 301 301 301 301 301 302 303 305 308 310 310 310 312 311
298 299 299 298 297 299 299 300 303 303 305 303 302 302 301 301 300 300 300 300 300 300 300 300 301 301 303 307 307 310 309 312
298 299 298 297 297 299 297 301 303 304 303 301 302 302 301 300 299 299 297 297 297 297 296 297 297 298 299 300 305 306 308 310
297 298 297 296 296 299 298 299 301 302 302 301 301 300 299 299 298 298 297 296 296 295 295 296 296 297 298 298 300 305 305 307
Wind_Speed
19 20 18 12 11 11 13 16 16 20 24 29 35 39 40 39 39 35 35 34 36 38 41 35 37 39 37 36 40 37 34 41
17 18 19 21 18 13 11 12 11 12 19 23 30 35 37 37 35 34 35 32 32 33 34 33 31 36 37 33 38 35 46 44
19 20 20 21 20 20 23 19 16 11 13 17 20 26 30 33 35 33 31 31 30 30 31 30 30 34 35 38 40 43 47 48
21 23 25 23 21 20 20 19 19 20 21 17 9 4 8 16 16 23 25 25 27 31 25 27 25 29 33 35 43 48 49 54
22 24 23 22 18 14 11 12 13 14 13 12 15 15 12 15 9 5 8 12 21 22 21 18 24 27 33 35 39 48 52 53
20 22 23 22 21 19 16 15 14 14 14 11 9 11 11 9 10 11 13 10 9 13 19 23 22 28 30 34 39 45 54 48
21 25 27 28 27 28 28 28 22 19 16 14 14 13 12 14 14 16 19 16 18 14 12 18 23 21 29 33 42 49 52 36
20 24 27 28 29 27 27 27 27 29 25 20 16 19 17 17 18 19 19 18 24 21 16 15 15 21 23 31 36 36 47 46
21 26 29 31 31 30 29 28 28 26 25 24 23 21 21 22 24 26 24 25 27 24 21 23 18 16 19 30 37 36 48 49
24 27 27 28 29 29 30 32 30 28 29 22 17 19 18 16 14 18 22 20 26 22 27 30 32 31 26 28 26 31 49 52
27 26 26 28 31 32 36 36 31 28 24 14 16 18 17 17 17 17 17 21 17 19 24 27 29 31 32 32 30 33 40 48
22 24 24 26 24 24 35 39 31 23 18 14 13 14 15 14 16 16 18 17 15 15 22 25 27 30 32 36 37 39 27 48
21 23 23 27 26 26 35 35 28 20 15 10 10 8 10 12 12 14 16 18 16 15 20 25 25 27 28 33 42 41 40 40
21 22 26 29 28 33 40 30 22 14 11 7 8 11 13 15 16 17 18 18 17 18 21 21 27 26 29 33 36 40 46 49
19 24 24 31 30 34 39 23 18 10 7 5 8 12 16 17 18 18 19 19 19 19 19 24 25 28 31 33 39 40 41 54
22 26 28 30 32 37 39 19 17 8 7 4 10 15 18 20 20 19 18 18 18 20 22 24 27 30 31 33 34 40 43 42
26 27 29 33 37 38 41 25 5 8 2 6 10 14 18 21 22 20 19 18 18 17 17 22 27 30 34 37 32 36 41 43
29 28 28 30 35 38 39 7 5 1 3 9 13 16 20 24 26 24 20 19 19 19 20 19 21 24 28 33 38 34 37 45
25 27 26 28 32 31 29 8 8 11 12 14 18 20 23 26 28 29 26 23 22 23 22 20 20 24 26 25 31 38 34 35
Wind_Direction
50 46 37 15 353 331 302 277 263 262 261 254 251 245 247 248 251 249 250 247 244 243 248 255 262 244 237 234 226 219 218 214
52 47 45 47 40 21 5 353 314 276 266 263 255 251 251 246 250 257 255 251 243 245 248 251 254 253 247 228 215 227 212 209
39 38 39 40 45 47 46 45 19 313 277 257 251 245 246 240 247 248 248 254 250 245 243 246 252 245 244 235 230 228 213 207
34 32 32 36 34 32 35 37 39 32 31 1 306 242 221 223 237 242 244 247 248 243 249 251 252 250 248 251 245 221 202 205
28 22 21 19 20 22 23 16 8 1 8 0 355 0 1 357 338 334 291 254 243 243 234 246 249 250 251 249 236 223 219 216
17 11 9 8 360 356 347 340 335 336 340 339 331 325 321 302 310 321 321 308 313 279 245 243 236 245 243 245 242 225 217 213
2 357 352 349 346 342 341 339 328 319 313 313 306 296 296 294 293 287 286 296 279 286 276 254 250 242 246 249 254 233 223 218
349 345 342 338 334 331 327 325 324 319 307 301 292 288 284 286 285 276 260 264 272 285 268 261 264 246 238 250 233 243 225 217
342 337 332 328 323 320 317 309 303 301 299 299 295 292 286 279 283 283 279 272 264 252 258 262 263 268 266 243 232 243 233 226
332 328 322 321 319 319 322 318 307 303 302 290 276 283 293 295 291 286 284 280 267 260 250 250 246 243 244 255 241 240 225 223
324 321 325 328 325 319 321 316 305 298 299 285 286 290 293 295 294 287 287 274 269 255 251 251 256 249 246 237 254 254 241 228
314 319 319 316 315 309 320 321 304 293 285 278 282 291 300 298 291 288 279 280 273 256 252 254 254 249 241 242 239 242 242 236
310 311 314 317 320 315 329 319 304 294 279 283 297 315 320 316 309 304 297 291 285 278 259 255 253 249 246 241 239 236 228 226
318 322 322 322 318 321 326 310 310 300 250 262 302 326 326 331 332 321 318 316 305 282 267 261 252 253 252 246 244 246 236 235
322 322 321 323 319 325 324 315 314 331 291 272 310 330 336 339 336 330 327 318 306 291 274 262 254 243 245 247 246 240 246 235
324 324 325 325 321 327 324 325 322 313 306 304 332 342 343 341 340 340 335 325 313 302 291 277 265 250 237 239 246 244 238 236
326 323 328 326 332 333 328 333 306 342 10 331 350 350 347 346 343 342 343 338 328 316 301 286 277 269 254 241 239 244 238 232
324 320 328 330 336 334 341 338 331 297 24 17 6 355 353 353 354 351 347 341 334 326 317 303 289 280 269 244 236 243 237 225
323 323 328 335 339 342 5 27 70 53 37 23 2 353 351 355 356 356 348 343 338 330 321 310 288 286 278 264 238 235 238 231